| time (UTC) | temp F | wind direction | speed MPH | gust MPH | rain 1hr in | rain 24hr in | rain mn in | humidity % | barometer mb |
| 20260506174847 | 66 | 119 | 5.0 | 9.0 | 0.00 | 0.00 | 0.00 | 80 | 1011.6 |
| 20260506174822 | 66 | 320 | 6.0 | 9.0 | 0.00 | 0.00 | 0.00 | 78 | 1011.6 |
| 20260506173657 | 66 | 149 | 5.0 | 8.0 | 0.00 | 0.00 | 0.00 | 78 | 1011.5 |
| 20260506173154 | 66 | 200 | 4.0 | 8.0 | 0.00 | 0.00 | 0.00 | 77 | 1011.4 |
| 20260506172753 | 67 | 25 | 3.0 | 8.0 | 0.00 | 0.00 | 0.00 | 75 | 1011.4 |
| 20260506172738 | 66 | 154 | 3.0 | 8.0 | 0.00 | 0.00 | 0.00 | 76 | 1011.4 |
| 20260506171719 | 67 | 207 | 4.0 | 7.0 | 0.00 | 0.00 | 0.00 | 73 | 1011.4 |
| 20260506171239 | 68 | 130 | 3.0 | 9.0 | 0.00 | 0.00 | 0.00 | 72 | 1011.3 |
| 20260506171143 | 70 | 271 | 2.0 | 7.0 | 0.00 | 0.00 | 0.00 | 66 | 1011.3 |
| 20260506170740 | 68 | 106 | 4.0 | 9.0 | 0.00 | 0.00 | 0.00 | 70 | 1011.4 |
| 20260506170206 | 70 | 245 | 3.0 | 7.0 | 0.00 | 0.00 | 0.00 | 65 | 1011.2 |
| 20260506170156 | 69 | 165 | 4.0 | 7.0 | 0.00 | 0.00 | 0.00 | 68 | 1011.3 |
| 20260506165008 | 70 | 94 | 2.0 | 5.0 | 0.00 | 0.00 | 0.00 | 64 | 1011.1 |
| 20260506164253 | 71 | 274 | 1.0 | 5.0 | 0.00 | 0.00 | 0.00 | 62 | 1011.1 |
| 20260506163801 | 71 | 203 | 2.0 | 5.0 | 0.00 | 0.00 | 0.00 | 63 | 1011.2 |
| 20260506163738 | 71 | 244 | 1.0 | 5.0 | 0.00 | 0.00 | 0.00 | 63 | 1011.2 |
| 20260506162655 | 71 | 206 | 1.0 | 6.0 | 0.00 | 0.00 | 0.00 | 62 | 1011.2 |
| 20260506162243 | 71 | 221 | 2.0 | 6.0 | 0.00 | 0.00 | 0.00 | 61 | 1011.1 |
| 20260506161701 | 71 | 258 | 2.0 | 5.0 | 0.00 | 0.00 | 0.00 | 62 | 1011.1 |
| 20260506161237 | 70 | 182 | 2.0 | 6.0 | 0.00 | 0.00 | 0.00 | 60 | 1011.1 |
| 20260506160723 | 70 | 205 | 3.0 | 7.0 | 0.00 | 0.00 | 0.00 | 59 | 1011.2 |
| 20260506160213 | 71 | 77 | 2.0 | 6.0 | 0.00 | 0.00 | 0.00 | 56 | 1011.1 |
| 20260506160201 | 71 | 147 | 3.0 | 7.0 | 0.00 | 0.00 | 0.00 | 58 | 1011.1 |
| 20260506155231 | 71 | 119 | 3.0 | 6.0 | 0.00 | 0.00 | 0.00 | 55 | 1011.2 |
| 20260506154654 | 71 | 84 | 2.0 | 7.0 | 0.00 | 0.00 | 0.00 | 53 | 1011.3 |
| 20260506154225 | 71 | 217 | 2.0 | 8.0 | 0.00 | 0.00 | 0.00 | 55 | 1011.3 |
| 20260506153746 | 71 | 269 | 2.0 | 8.0 | 0.00 | 0.00 | 0.00 | 53 | 1011.2 |
| 20260506153221 | 71 | 237 | 3.0 | 7.0 | 0.00 | 0.00 | 0.00 | 53 | 1011.3 |
| 20260506152656 | 71 | 184 | 2.0 | 7.0 | 0.00 | 0.00 | 0.00 | 52 | 1011.3 |
| 20260506152216 | 70 | 162 | 2.0 | 6.0 | 0.00 | 0.00 | 0.00 | 52 | 1011.4 |
| 20260506151806 | 70 | 214 | 2.0 | 6.0 | 0.00 | 0.00 | 0.00 | 51 | 1011.4 |
| 20260506151210 | 70 | 131 | 2.0 | 6.0 | 0.00 | 0.00 | 0.00 | 51 | 1011.5 |
| 20260506150804 | 70 | 207 | 2.0 | 6.0 | 0.00 | 0.00 | 0.00 | 51 | 1011.4 |
| 20260506150154 | 70 | 210 | 2.0 | 7.0 | 0.00 | 0.00 | 0.00 | 50 | 1011.5 |
| 20260506145754 | 70 | 16 | 4.0 | 7.0 | 0.00 | 0.00 | 0.00 | 50 | 1011.4 |
| 20260506145154 | 70 | 271 | 3.0 | 9.0 | 0.00 | 0.00 | 0.00 | 50 | 1011.5 |
| 20260506144749 | 69 | 203 | 4.0 | 11.0 | 0.00 | 0.00 | 0.00 | 48 | 1011.5 |
| 20260506144155 | 70 | 289 | 4.0 | 11.0 | 0.00 | 0.00 | 0.00 | 48 | 1011.5 |
| 20260506143752 | 70 | 129 | 4.0 | 8.0 | 0.00 | 0.00 | 0.00 | 49 | 1011.5 |
| 20260506143154 | 69 | 193 | 3.0 | 8.0 | 0.00 | 0.00 | 0.00 | 49 | 1011.6 |
| 20260506142654 | 69 | 117 | 3.0 | 8.0 | 0.00 | 0.00 | 0.00 | 48 | 1011.7 |
| 20260506142155 | 69 | 205 | 3.0 | 8.0 | 0.00 | 0.00 | 0.00 | 50 | 1011.7 |
| 20260506141733 | 69 | 229 | 3.0 | 8.0 | 0.00 | 0.00 | 0.00 | 49 | 1011.6 |
| 20260506141154 | 70 | 272 | 4.0 | 8.0 | 0.00 | 0.00 | 0.00 | 51 | 1011.7 |
| 20260506140728 | 70 | 177 | 4.0 | 7.0 | 0.00 | 0.00 | 0.00 | 50 | 1011.8 |
| 20260506140214 | 70 | 189 | 3.0 | 9.0 | 0.00 | 0.00 | 0.00 | 49 | 1011.8 |
| 20260506135723 | 70 | 250 | 3.0 | 9.0 | 0.00 | 0.00 | 0.00 | 50 | 1011.8 |
| 20260506135203 | 70 | 212 | 2.0 | 8.0 | 0.00 | 0.00 | 0.00 | 50 | 1011.9 |
| 20260506134718 | 70 | 193 | 3.0 | 7.0 | 0.00 | 0.00 | 0.00 | 48 | 1011.9 |
| 20260506134311 | 70 | 299 | 3.0 | 6.0 | 0.00 | 0.00 | 0.00 | 49 | 1012.0 |
| 20260506133714 | 70 | 144 | 2.0 | 6.0 | 0.00 | 0.00 | 0.00 | 48 | 1012.0 |
| 20260506133306 | 71 | 200 | 4.0 | 6.0 | 0.00 | 0.00 | 0.00 | 48 | 1012.1 |
| 20260506132655 | 71 | 51 | 2.0 | 6.0 | 0.00 | 0.00 | 0.00 | 49 | 1012.1 |
| 20260506132300 | 70 | 176 | 2.0 | 6.0 | 0.00 | 0.00 | 0.00 | 48 | 1012.1 |
| 20260506131654 | 70 | 212 | 2.0 | 6.0 | 0.00 | 0.00 | 0.00 | 49 | 1012.1 |
| 20260506131253 | 70 | 252 | 3.0 | 8.0 | 0.00 | 0.00 | 0.00 | 49 | 1012.3 |
| 20260506130657 | 70 | 262 | 4.0 | 8.0 | 0.00 | 0.00 | 0.00 | 50 | 1012.2 |
| 20260506130303 | 70 | 276 | 3.0 | 7.0 | 0.00 | 0.00 | 0.00 | 50 | 1012.2 |
| 20260506125655 | 70 | 266 | 2.0 | 6.0 | 0.00 | 0.00 | 0.00 | 52 | 1012.2 |
| 20260506125154 | 70 | 84 | 2.0 | 7.0 | 0.00 | 0.00 | 0.00 | 54 | 1012.2 |
| 20260506124655 | 70 | 249 | 3.0 | 8.0 | 0.00 | 0.00 | 0.00 | 52 | 1012.3 |
| 20260506124240 | 70 | 163 | 2.0 | 8.0 | 0.00 | 0.00 | 0.00 | 51 | 1012.3 |
| 20260506123707 | 69 | 122 | 3.0 | 8.0 | 0.00 | 0.00 | 0.00 | 51 | 1012.3 |
| 20260506123308 | 69 | 182 | 4.0 | 8.0 | 0.00 | 0.00 | 0.00 | 51 | 1012.4 |
| 20260506122655 | 69 | 247 | 3.0 | 8.0 | 0.00 | 0.00 | 0.00 | 52 | 1012.4 |
| 20260506122243 | 69 | 352 | 3.0 | 8.0 | 0.00 | 0.00 | 0.00 | 53 | 1012.5 |
| 20260506121654 | 69 | 153 | 3.0 | 9.0 | 0.00 | 0.00 | 0.00 | 54 | 1012.4 |
| 20260506121229 | 68 | 271 | 4.0 | 9.0 | 0.00 | 0.00 | 0.00 | 53 | 1012.4 |
| 20260506120815 | 68 | 331 | 5.0 | 9.0 | 0.00 | 0.00 | 0.00 | 56 | 1012.4 |
| 20260506120311 | 69 | 166 | 5.0 | 11.0 | 0.00 | 0.00 | 0.00 | 56 | 1012.3 |
| 20260506115811 | 69 | 293 | 5.0 | 11.0 | 0.00 | 0.00 | 0.00 | 54 | 1012.4 |
| 20260506115154 | 69 | 166 | 6.0 | 10.0 | 0.00 | 0.00 | 0.00 | 55 | 1012.3 |
| 20260506115148 | 71 | 197 | 3.0 | 5.0 | 0.00 | 0.00 | 0.00 | 49 | 1012.1 |
| 20260506114850 | 70 | 189 | 3.0 | 7.0 | 0.00 | 0.00 | 0.00 | 49 | 1012.3 |
| 20260506114401 | 71 | 168 | 3.0 | 7.0 | 0.00 | 0.00 | 0.00 | 50 | 1012.2 |
| 20260506113848 | 71 | 284 | 4.0 | 6.0 | 0.00 | 0.00 | 0.00 | 49 | 1012.3 |
| 20260506113400 | 71 | 125 | 2.0 | 6.0 | 0.00 | 0.00 | 0.00 | 51 | 1012.2 |
| 20260506112157 | 71 | 169 | 3.0 | 6.0 | 0.00 | 0.00 | 0.00 | 49 | 1012.2 |
| 20260506111653 | 71 | 319 | 3.0 | 6.0 | 0.00 | 0.00 | 0.00 | 49 | 1012.3 |
| 20260506111616 | 69 | 215 | 2.0 | 7.0 | 0.00 | 0.00 | 0.00 | 52 | 1012.4 |
| 20260506111245 | 70 | 120 | 2.0 | 5.0 | 0.00 | 0.00 | 0.00 | 50 | 1012.3 |
| 20260506110911 | 70 | 141 | 2.0 | 6.0 | 0.00 | 0.00 | 0.00 | 51 | 1012.4 |
| 20260506105731 | 69 | 269 | 3.0 | 7.0 | 0.00 | 0.00 | 0.00 | 53 | 1012.5 |
| 20260506105153 | 69 | 282 | 3.0 | 7.0 | 0.00 | 0.00 | 0.00 | 53 | 1012.5 |
| 20260506104729 | 69 | 108 | 3.0 | 8.0 | 0.00 | 0.00 | 0.00 | 52 | 1012.6 |
| 20260506104153 | 69 | 189 | 4.0 | 9.0 | 0.00 | 0.00 | 0.00 | 51 | 1012.6 |
| 20260506103723 | 68 | 224 | 4.0 | 10.0 | 0.00 | 0.00 | 0.00 | 54 | 1012.7 |
| 20260506103153 | 68 | 115 | 6.0 | 10.0 | 0.00 | 0.00 | 0.00 | 53 | 1012.6 |
| 20260506102850 | 67 | 180 | 4.0 | 9.0 | 0.00 | 0.00 | 0.00 | 55 | 1012.7 |
| 20260506102803 | 68 | 163 | 4.0 | 9.0 | 0.00 | 0.00 | 0.00 | 53 | 1012.7 |
| 20260506102404 | 68 | 162 | 5.0 | 9.0 | 0.00 | 0.00 | 0.00 | 54 | 1012.8 |
| 20260506101305 | 67 | 212 | 4.0 | 13.0 | 0.00 | 0.00 | 0.00 | 56 | 1012.7 |
| 20260506100653 | 67 | 162 | 4.0 | 13.0 | 0.00 | 0.00 | 0.00 | 57 | 1012.7 |
| 20260506100332 | 67 | 223 | 5.0 | 12.0 | 0.00 | 0.00 | 0.00 | 56 | 1012.7 |
| 20260506095731 | 66 | 94 | 6.0 | 12.0 | 0.00 | 0.00 | 0.00 | 57 | 1012.8 |
| 20260506095254 | 66 | 237 | 5.0 | 10.0 | 0.00 | 0.00 | 0.00 | 57 | 1012.8 |
| 20260506094657 | 66 | 209 | 5.0 | 11.0 | 0.00 | 0.00 | 0.00 | 58 | 1012.8 |
| 20260506094153 | 66 | 220 | 5.0 | 11.0 | 0.00 | 0.00 | 0.00 | 57 | 1012.8 |
| 20260506093653 | 66 | 279 | 6.0 | 9.0 | 0.00 | 0.00 | 0.00 | 56 | 1012.8 |
| 20260506093241 | 66 | 241 | 5.0 | 11.0 | 0.00 | 0.00 | 0.00 | 55 | 1012.8 |
| 20260506092945 | 65 | 239 | 7.0 | 10.0 | 0.00 | 0.00 | 0.00 | 53 | 1012.8 |
| 20260506092842 | 65 | 207 | 7.0 | 11.0 | 0.00 | 0.00 | 0.00 | 55 | 1012.8 |
| 20260506091808 | 67 | 236 | 2.0 | 7.0 | 0.00 | 0.00 | 0.00 | 58 | 1012.7 |
| 20260506091739 | 65 | 243 | 5.0 | 10.0 | 0.00 | 0.00 | 0.00 | 52 | 1012.8 |
| 20260506091250 | 65 | 238 | 5.0 | 10.0 | 0.00 | 0.00 | 0.00 | 52 | 1012.8 |
| 20260506090755 | 65 | 269 | 4.0 | 10.0 | 0.00 | 0.00 | 0.00 | 54 | 1012.7 |
| 20260506090309 | 65 | 248 | 4.0 | 9.0 | 0.00 | 0.00 | 0.00 | 56 | 1012.7 |
| 20260506085840 | 66 | 231 | 6.0 | 9.0 | 0.00 | 0.00 | 0.00 | 56 | 1012.8 |
| 20260506084852 | 67 | 229 | 3.0 | 6.0 | 0.00 | 0.00 | 0.00 | 60 | 1012.7 |
| 20260506084402 | 67 | 44 | 2.0 | 6.0 | 0.00 | 0.00 | 0.00 | 61 | 1012.7 |
| 20260506083850 | 67 | 88 | 2.0 | 6.0 | 0.00 | 0.00 | 0.00 | 60 | 1012.6 |
| 20260506083112 | 67 | 266 | 1.0 | 4.0 | 0.00 | 0.00 | 0.00 | 61 | 1012.5 |
| 20260506082206 | 67 | 274 | 1.0 | 5.0 | 0.00 | 0.00 | 0.00 | 62 | 1012.5 |
| 20260506081753 | 66 | 159 | 3.0 | 5.0 | 0.00 | 0.00 | 0.00 | 62 | 1012.6 |
| 20260506081614 | 66 | 115 | 1.0 | 3.0 | 0.00 | 0.00 | 0.00 | 65 | 1012.3 |
| 20260506081608 | 66 | 188 | 1.0 | 4.0 | 0.00 | 0.00 | 0.00 | 64 | 1012.4 |
| 20260506081243 | 66 | 290 | 1.0 | 6.0 | 0.00 | 0.00 | 0.00 | 65 | 1012.4 |
| 20260506080657 | 66 | 184 | 1.0 | 6.0 | 0.00 | 0.00 | 0.00 | 65 | 1012.5 |
| 20260506080456 | 66 | 251 | 2.0 | 6.0 | 0.00 | 0.00 | 0.00 | 64 | 1012.5 |
| 20260506073315 | 63 | 127 | 0.0 | 6.0 | 0.00 | 0.00 | 0.00 | 69 | 1012.2 |
| 20260506072844 | 62 | 323 | 3.0 | 6.0 | 0.00 | 0.00 | 0.00 | 69 | 1012.2 |
| 20260506072517 | 62 | 35 | 2.0 | 6.0 | 0.00 | 0.00 | 0.00 | 67 | 1012.2 |
| 20260506071856 | 62 | 291 | 4.0 | 9.0 | 0.00 | 0.00 | 0.00 | 66 | 1012.1 |
| 20260506070900 | 62 | 302 | 3.0 | 9.0 | 0.00 | 0.00 | 0.00 | 67 | 1012.1 |
| 20260506070436 | 61 | 312 | 6.0 | 9.0 | 0.00 | 0.00 | 0.00 | 67 | 1012.0 |
| 20260506062305 | 60 | 303 | 5.0 | 9.0 | 0.00 | 0.00 | 0.00 | 69 | 1011.9 |
| 20260506061947 | 59 | 323 | 4.0 | 9.0 | 0.00 | 0.00 | 0.00 | 70 | 1011.8 |
| 20260506061804 | 60 | 300 | 4.0 | 9.0 | 0.00 | 0.00 | 0.00 | 71 | 1011.8 |
| 20260506060654 | 59 | 301 | 5.0 | 9.0 | 0.00 | 0.00 | 0.00 | 71 | 1011.8 |
| 20260506060243 | 59 | 349 | 5.0 | 9.0 | 0.00 | 0.00 | 0.00 | 72 | 1011.8 |
| 20260506051152 | 58 | 323 | 6.0 | 8.0 | 0.00 | 0.00 | 0.00 | 80 | 1011.5 |
| 20260506050748 | 58 | 322 | 4.0 | 6.0 | 0.00 | 0.00 | 0.00 | 83 | 1011.5 |
| 20260506050222 | 58 | 321 | 3.0 | 4.0 | 0.00 | 0.00 | 0.00 | 83 | 1011.4 |
| 20260506044724 | 58 | 340 | 2.0 | 4.0 | 0.00 | 0.00 | 0.00 | 82 | 1011.2 |
| 20260506044152 | 58 | 335 | 2.0 | 5.0 | 0.00 | 0.00 | 0.00 | 82 | 1011.2 |
| 20260506043720 | 58 | 1 | 3.0 | 5.0 | 0.00 | 0.00 | 0.00 | 82 | 1011.2 |
| 20260506043307 | 58 | 347 | 2.0 | 4.0 | 0.00 | 0.00 | 0.00 | 83 | 1011.2 |
| 20260506043258 | 58 | 7 | 3.0 | 6.0 | 0.00 | 0.00 | 0.00 | 83 | 1011.2 |
| 20260506043242 | 58 | 336 | 3.0 | 4.0 | 0.00 | 0.00 | 0.00 | 82 | 1011.2 |
| 20260506042047 | 58 | 10 | 3.0 | 5.0 | 0.00 | 0.00 | 0.00 | 84 | 1011.2 |
| 20260506041907 | 58 | 356 | 3.0 | 6.0 | 0.00 | 0.00 | 0.00 | 83 | 1011.2 |
| 20260506040958 | 58 | 28 | 4.0 | 5.0 | 0.00 | 0.00 | 0.00 | 84 | 1011.1 |
| 20260506040311 | 58 | 19 | 3.0 | 5.0 | 0.00 | 0.00 | 0.00 | 84 | 1011.1 |
| 20260506035652 | 58 | 24 | 3.0 | 4.0 | 0.00 | 0.00 | 0.00 | 84 | 1011.1 |
| 20260506035248 | 58 | 351 | 3.0 | 4.0 | 0.00 | 0.00 | 0.00 | 85 | 1011.1 |
| 20260506034652 | 58 | 25 | 2.0 | 4.0 | 0.00 | 0.00 | 0.00 | 85 | 1011.2 |
| 20260506034449 | 58 | 6 | 2.0 | 3.0 | 0.00 | 0.00 | 0.00 | 86 | 1011.1 |
| 20260506034353 | 58 | 352 | 2.0 | 4.0 | 0.00 | 0.00 | 0.00 | 86 | 1011.1 |
| 20260506033235 | 58 | 349 | 1.0 | 2.0 | 0.00 | 0.00 | 0.00 | 87 | 1011.1 |
| 20260506033052 | 57 | 348 | 1.0 | 2.0 | 0.00 | 0.00 | 0.00 | 87 | 1011.0 |
| 20260506032728 | 58 | 353 | 1.0 | 2.0 | 0.00 | 0.00 | 0.00 | 87 | 1011.0 |
| 20260506031710 | 57 | 340 | 1.0 | 2.0 | 0.00 | 0.00 | 0.00 | 86 | 1011.1 |
| 20260506031231 | 58 | 347 | 1.0 | 2.0 | 0.00 | 0.00 | 0.00 | 86 | 1011.1 |
| 20260506030958 | 58 | 336 | 1.0 | 3.0 | 0.00 | 0.00 | 0.00 | 86 | 1011.1 |
| 20260506030922 | 58 | 15 | 0.0 | 3.0 | 0.00 | 0.00 | 0.00 | 86 | 1011.1 |
| 20260506025734 | 58 | 325 | 1.0 | 2.0 | 0.00 | 0.00 | 0.00 | 86 | 1011.1 |
| 20260506025421 | 58 | 325 | 0.0 | 3.0 | 0.00 | 0.00 | 0.00 | 85 | 1011.2 |
| 20260506025234 | 58 | 328 | 0.0 | 1.0 | 0.00 | 0.00 | 0.00 | 85 | 1011.1 |
| 20260506024206 | 58 | 321 | 2.0 | 3.0 | 0.00 | 0.00 | 0.00 | 85 | 1011.1 |
| 20260506023751 | 58 | 320 | 1.0 | 2.0 | 0.00 | 0.00 | 0.00 | 85 | 1011.1 |
| 20260506023202 | 58 | 316 | 1.0 | 2.0 | 0.00 | 0.00 | 0.00 | 84 | 1011.0 |
| 20260506022746 | 58 | 319 | 1.0 | 2.0 | 0.00 | 0.00 | 0.00 | 83 | 1011.1 |
| 20260506022212 | 58 | 359 | 0.0 | 2.0 | 0.00 | 0.00 | 0.00 | 81 | 1010.9 |
| 20260506022200 | 58 | 314 | 1.0 | 3.0 | 0.00 | 0.00 | 0.00 | 82 | 1011.1 |
| 20260506021921 | 58 | 329 | 1.0 | 3.0 | 0.00 | 0.00 | 0.00 | 81 | 1011.0 |
| 20260506021024 | 58 | 324 | 2.0 | 4.0 | 0.00 | 0.00 | 0.00 | 79 | 1010.9 |
| 20260506020835 | 58 | 359 | 0.0 | 3.0 | 0.00 | 0.00 | 0.00 | 80 | 1010.9 |
| 20260506020346 | 58 | 322 | 2.0 | 4.0 | 0.00 | 0.00 | 0.00 | 80 | 1010.9 |
| 20260506015153 | 58 | 314 | 1.0 | 3.0 | 0.00 | 0.00 | 0.00 | 78 | 1010.9 |
| 20260506014652 | 58 | 349 | 1.0 | 3.0 | 0.00 | 0.00 | 0.00 | 78 | 1010.9 |
| 20260506014321 | 58 | 329 | 1.0 | 4.0 | 0.00 | 0.00 | 0.00 | 78 | 1010.9 |
| 20260506013651 | 58 | 343 | 2.0 | 4.0 | 0.00 | 0.00 | 0.00 | 77 | 1010.9 |
| 20260506013305 | 58 | 357 | 1.0 | 3.0 | 0.00 | 0.00 | 0.00 | 78 | 1010.9 |
| 20260506012709 | 58 | 345 | 1.0 | 2.0 | 0.00 | 0.00 | 0.00 | 78 | 1010.9 |
| 20260506012244 | 58 | 349 | 2.0 | 2.0 | 0.00 | 0.00 | 0.00 | 76 | 1010.9 |
| 20260506012232 | 58 | 349 | 0.0 | 0.0 | 0.00 | 0.00 | 0.00 | 77 | 1010.9 |
| 20260506011803 | 58 | 349 | 0.0 | 0.0 | 0.00 | 0.00 | 0.00 | 77 | 1011.0 |
| 20260506011433 | 58 | 349 | 0.0 | 2.0 | 0.00 | 0.00 | 0.00 | 76 | 1011.0 |
| 20260506010244 | 58 | 340 | 0.0 | 1.0 | 0.00 | 0.00 | 0.00 | 76 | 1010.9 |
| 20260506005944 | 58 | 326 | 0.0 | 4.0 | 0.00 | 0.00 | 0.00 | 76 | 1010.9 |
| 20260506005237 | 58 | 355 | 1.0 | 4.0 | 0.00 | 0.00 | 0.00 | 75 | 1010.9 |
| 20260506004653 | 58 | 316 | 2.0 | 3.0 | 0.00 | 0.00 | 0.00 | 76 | 1010.9 |
| 20260506004232 | 58 | 311 | 2.0 | 3.0 | 0.00 | 0.00 | 0.00 | 76 | 1010.9 |
| 20260506003652 | 58 | 302 | 1.0 | 3.0 | 0.00 | 0.00 | 0.00 | 75 | 1011.0 |
| 20260506003609 | 58 | 328 | 1.0 | 3.0 | 0.00 | 0.00 | 0.00 | 75 | 1011.0 |
| 20260506003604 | 59 | 313 | 0.0 | 2.0 | 0.00 | 0.00 | 0.00 | 75 | 1010.9 |
| 20260506002806 | 59 | 286 | 1.0 | 2.0 | 0.00 | 0.00 | 0.00 | 75 | 1010.9 |
| 20260506001814 | 59 | 313 | 1.0 | 2.0 | 0.00 | 0.00 | 0.00 | 75 | 1011.0 |
| 20260506001153 | 59 | 316 | 1.0 | 2.0 | 0.00 | 0.00 | 0.00 | 75 | 1011.1 |
| 20260506000808 | 59 | 348 | 0.0 | 2.0 | 0.00 | 0.00 | 0.00 | 75 | 1011.1 |
| 20260506000151 | 59 | 11 | 2.0 | 2.0 | 0.00 | 0.00 | 0.00 | 74 | 1011.2 |
| 20260505235831 | 60 | 305 | 2.0 | 4.0 | 0.00 | 0.00 | 0.00 | 71 | 1011.3 |
| 20260505235812 | 60 | 59 | 0.0 | 2.0 | 0.00 | 0.00 | 0.00 | 72 | 1011.2 |
| 20260505235321 | 60 | 278 | 0.0 | 1.0 | 0.00 | 0.00 | 0.00 | 72 | 1011.2 |
| 20260505234739 | 60 | 281 | 0.0 | 3.0 | 0.00 | 0.00 | 0.00 | 71 | 1011.2 |
| 20260505233651 | 61 | 301 | 1.0 | 4.0 | 0.00 | 0.00 | 0.00 | 70 | 1011.3 |
| 20260505233543 | 61 | 276 | 2.0 | 3.0 | 0.00 | 0.00 | 0.00 | 69 | 1011.2 |
| 20260505233316 | 61 | 314 | 2.0 | 3.0 | 0.00 | 0.00 | 0.00 | 69 | 1011.2 |
| 20260505232151 | 61 | 266 | 0.0 | 1.0 | 0.00 | 0.00 | 0.00 | 69 | 1011.1 |
| 20260505231732 | 61 | 274 | 0.0 | 4.0 | 0.00 | 0.00 | 0.00 | 69 | 1011.0 |
| 20260505231152 | 62 | 1 | 1.0 | 4.0 | 0.00 | 0.00 | 0.00 | 69 | 1011.0 |
| 20260505230759 | 62 | 309 | 2.0 | 6.0 | 0.00 | 0.00 | 0.00 | 69 | 1011.1 |
| 20260505230151 | 62 | 319 | 3.0 | 6.0 | 0.00 | 0.00 | 0.00 | 69 | 1011.1 |
| 20260505225724 | 62 | 323 | 2.0 | 5.0 | 0.00 | 0.00 | 0.00 | 70 | 1011.2 |
| 20260505225151 | 62 | 297 | 3.0 | 4.0 | 0.00 | 0.00 | 0.00 | 70 | 1011.2 |
| 20260505224804 | 62 | 316 | 3.0 | 6.0 | 0.00 | 0.00 | 0.00 | 65 | 1011.5 |
| 20260505224745 | 62 | 319 | 6.0 | 9.0 | 0.00 | 0.00 | 0.00 | 67 | 1011.4 |
| 20260505224732 | 62 | 293 | 3.0 | 7.0 | 0.00 | 0.00 | 0.00 | 70 | 1011.2 |
| 20260505224402 | 62 | 323 | 3.0 | 10.0 | 0.00 | 0.00 | 0.00 | 70 | 1011.2 |
| 20260505223654 | 62 | 340 | 5.0 | 10.0 | 0.00 | 0.00 | 0.00 | 70 | 1011.3 |
| 20260505223410 | 61 | 298 | 6.0 | 10.0 | 0.00 | 0.00 | 0.00 | 70 | 1011.4 |
| 20260505222915 | 61 | 330 | 6.0 | 10.0 | 0.00 | 0.00 | 0.00 | 70 | 1011.4 |
| 20260505221843 | 62 | 308 | 3.0 | 9.0 | 0.00 | 0.00 | 0.00 | 66 | 1011.5 |
| 20260505221045 | 62 | 304 | 3.0 | 7.0 | 0.00 | 0.00 | 0.00 | 65 | 1011.6 |
| 20260505220720 | 62 | 293 | 3.0 | 7.0 | 0.00 | 0.00 | 0.00 | 65 | 1011.6 |
| 20260505215651 | 62 | 319 | 3.0 | 6.0 | 0.00 | 0.00 | 0.00 | 65 | 1011.7 |
| 20260505215243 | 62 | 303 | 3.0 | 7.0 | 0.00 | 0.00 | 0.00 | 65 | 1011.8 |
| 20260505214651 | 62 | 297 | 5.0 | 7.0 | 0.00 | 0.00 | 0.00 | 63 | 1011.8 |
| 20260505214238 | 62 | 303 | 2.0 | 4.0 | 0.00 | 0.00 | 0.00 | 63 | 1011.8 |
| 20260505213720 | 62 | 228 | 0.0 | 0.0 | 0.00 | 0.00 | 0.00 | 65 | 1011.7 |
| 20260505213658 | 62 | 315 | 2.0 | 4.0 | 0.00 | 0.00 | 0.00 | 63 | 1011.9 |
| 20260505213424 | 62 | 264 | 0.0 | 2.0 | 0.00 | 0.00 | 0.00 | 64 | 1011.8 |
| 20260505212228 | 61 | 228 | 0.0 | 0.0 | 0.00 | 0.00 | 0.00 | 67 | 1011.6 |
| 20260505211651 | 61 | 228 | 0.0 | 0.0 | 0.00 | 0.00 | 0.00 | 65 | 1011.4 |
| 20260505211616 | 61 | 228 | 0.0 | 2.0 | 0.00 | 0.00 | 0.00 | 66 | 1011.2 |
| 20260505210809 | 61 | 228 | 0.0 | 2.0 | 0.00 | 0.00 | 0.00 | 65 | 1011.2 |
| 20260505210153 | 61 | 164 | 0.0 | 1.0 | 0.00 | 0.00 | 0.00 | 66 | 1011.2 |
| 20260505210146 | 61 | 300 | 3.0 | 7.0 | 0.00 | 0.00 | 0.00 | 65 | 1011.1 |
| 20260505205907 | 61 | 208 | 0.0 | 1.0 | 0.00 | 0.00 | 0.00 | 64 | 1011.2 |
| 20260505205345 | 61 | 278 | 0.0 | 3.0 | 0.00 | 0.00 | 0.00 | 65 | 1011.2 |
| 20260505204853 | 61 | 306 | 1.0 | 5.0 | 0.00 | 0.00 | 0.00 | 65 | 1011.2 |
| 20260505203746 | 62 | 295 | 5.0 | 7.0 | 0.00 | 0.00 | 0.00 | 66 | 1011.2 |
| 20260505203151 | 62 | 285 | 5.0 | 7.0 | 0.00 | 0.00 | 0.00 | 66 | 1011.1 |
| 20260505202651 | 62 | 303 | 4.0 | 6.0 | 0.00 | 0.00 | 0.00 | 64 | 1011.1 |
| 20260505202152 | 62 | 300 | 3.0 | 6.0 | 0.00 | 0.01 | 0.00 | 63 | 1010.9 |
| 20260505201731 | 62 | 309 | 3.0 | 7.0 | 0.00 | 0.02 | 0.00 | 62 | 1010.8 |
| 20260505201151 | 62 | 294 | 4.0 | 7.0 | 0.00 | 0.02 | 0.00 | 62 | 1010.7 |
| 20260505200727 | 62 | 299 | 4.0 | 9.0 | 0.00 | 0.02 | 0.00 | 61 | 1010.5 |
| 20260505200214 | 62 | 345 | 5.0 | 11.0 | 0.00 | 0.02 | 0.00 | 62 | 1010.4 |
| 20260505195725 | 62 | 354 | 6.0 | 11.0 | 0.00 | 0.02 | 0.00 | 65 | 1010.4 |
| 20260505195158 | 62 | 305 | 6.0 | 11.0 | 0.00 | 0.02 | 0.00 | 65 | 1010.5 |
| 20260505195054 | 62 | 314 | 8.0 | 14.0 | 0.00 | 0.02 | 0.00 | 67 | 1010.3 |
| 20260505194840 | 61 | 282 | 4.0 | 12.0 | 0.00 | 0.02 | 0.00 | 67 | 1010.5 |
| 20260505194008 | 62 | 304 | 9.0 | 15.0 | 0.00 | 0.02 | 0.00 | 66 | 1010.3 |
| 20260505193302 | 61 | 321 | 11.0 | 16.0 | 0.00 | 0.02 | 0.00 | 67 | 1010.3 |
| 20260505192652 | 61 | 349 | 10.0 | 17.0 | 0.00 | 0.02 | 0.00 | 70 | 1010.2 |
| 20260505192256 | 61 | 340 | 10.0 | 17.0 | 0.00 | 0.02 | 0.00 | 70 | 1010.2 |
| 20260505191651 | 61 | 340 | 9.0 | 17.0 | 0.00 | 0.02 | 0.00 | 69 | 1010.2 |
| 20260505191251 | 61 | 334 | 8.0 | 16.0 | 0.00 | 0.02 | 0.00 | 67 | 1010.2 |
| 20260505190654 | 61 | 2 | 11.0 | 16.0 | 0.00 | 0.02 | 0.00 | 66 | 1010.2 |
| 20260505190245 | 63 | 303 | 5.0 | 12.0 | 0.00 | 0.02 | 0.00 | 60 | 1010.2 |
| 20260505185651 | 63 | 302 | 3.0 | 6.0 | 0.00 | 0.02 | 0.00 | 60 | 1010.0 |
| 20260505185152 | 63 | 11 | 0.0 | 3.0 | 0.00 | 0.02 | 0.00 | 60 | 1009.6 |
| 20260505184651 | 63 | 17 | 0.0 | 4.0 | 0.00 | 0.02 | 0.00 | 59 | 1009.6 |
| 20260505184236 | 63 | 302 | 2.0 | 4.0 | 0.00 | 0.02 | 0.00 | 59 | 1009.9 |
| 20260505183651 | 64 | 305 | 0.0 | 3.0 | 0.00 | 0.02 | 0.00 | 59 | 1010.0 |
| 20260505183233 | 64 | 237 | 1.0 | 2.0 | 0.00 | 0.02 | 0.00 | 59 | 1010.1 |
| 20260505182646 | 64 | 311 | 0.0 | 3.0 | 0.00 | 0.02 | 0.00 | 59 | 1010.1 |
| 20260505182229 | 64 | 293 | 2.0 | 6.0 | 0.00 | 0.02 | 0.00 | 58 | 1010.2 |
| 20260505181639 | 64 | 319 | 4.0 | 6.0 | 0.00 | 0.02 | 0.00 | 57 | 1010.3 |
| 20260505181525 | 64 | 343 | 2.0 | 6.0 | 0.00 | 0.02 | 0.00 | 58 | 1010.4 |
| 20260505181304 | 64 | 312 | 2.0 | 7.0 | 0.00 | 0.02 | 0.00 | 57 | 1010.2 |
| 20260505180808 | 64 | 337 | 3.0 | 7.0 | 0.00 | 0.02 | 0.00 | 57 | 1010.2 |
| 20260505175637 | 64 | 298 | 1.0 | 6.0 | 0.00 | 0.02 | 0.00 | 58 | 1010.4 |
| 20260505175137 | 64 | 278 | 1.0 | 4.0 | 0.00 | 0.02 | 0.00 | 59 | 1010.3 |